Tetuan, Morocco

6:13 PM WEST on September 21, 2017 (GMT +0100)
Tetuan

Weather History for GMTN - October, 2013

Change the Weather History Date:

Tuesday, October 1, 2013

  Actual Average Record
Temperature  
Mean Temperature 78 °F -  
Max Temperature 86 °F 72 °F 86 °F (2013)
Min Temperature 69 °F 61 °F 59 °F (1996)
Cooling Degree Days 12    
Growing Degree Days 28 (Base 50)    
Moisture  
Dew Point 64 °F    
Average Humidity 66    
Maximum Humidity 83    
Minimum Humidity 42    
Precipitation  
Precipitation 0.00 in - - ()
Sea Level Pressure  
Sea Level Pressure 29.91 in    
Wind  
Wind Speed 8 mph ()    
Max Wind Speed 16 mph    
Max Gust Speed -    
Visibility 6.0 miles    
Events      
Averages and records for this station are not official NWS values.
T = Trace of Precipitation, MM = Missing Value Source: Averaged Metar Reports

Daily Weather History Graph

Daily Weather History Graph

Search for Another Location

Airport or City:

Trip Planner

Search our weather history database for the weather conditions in past years. The results will help you decide how hot, cold, wet, or windy it might be!

Date:

Astronomy

Oct. 01, 2013 Rise Set
Actual Time 7:16 AM WEST 7:05 PM WEST
Civil Twilight 6:50 AM WEST 7:30 PM WEST
Nautical Twilight 6:21 AM WEST 7:59 PM WEST
Astronomical Twilight 5:51 AM WEST 8:29 PM WEST
Moon 3:43 AM WEST (10/1) 4:55 PM WEST (10/1)
Length of Visible Light 12h 39m
Length of Day
11h 48m
Waning Crescent, 13% of the Moon is Illuminated
Oct 1
Waning Crescent
Oct 5
New
Oct 12
First Quarter
Oct 19
Full
Oct 27
Last Quarter

Hourly Weather History & Observations

Time (WEST) Temp. Heat Index Dew Point Humidity Pressure Visibility Wind Dir Wind Speed Gust Speed Precip Events Conditions
12:00 AM 73.4 °F - 62.6 °F 69% 29.92 in 6.2 mi West 16.1 mph - N/A   Unknown
1:00 AM 73 °F - 64 °F 65% 29.94 in 6 mi West 11.5 mph - -  
1:00 AM 73.4 °F - 64.4 °F 73% 29.92 in 6.2 mi West 11.5 mph - N/A   Unknown
2:00 AM 73.4 °F - 62.6 °F 69% 29.92 in 6.2 mi West 9.2 mph - N/A   Unknown
3:00 AM 71.6 °F - 62.6 °F 73% 29.92 in 6.2 mi SSW 4.6 mph - N/A   Unknown
4:00 AM 71 °F - 63 °F 70% 29.93 in 6 mi West 6.9 mph - -  
4:00 AM 71.6 °F - 62.6 °F 73% 29.92 in 6.2 mi West 6.9 mph - N/A   Unknown
5:00 AM 69.8 °F - 64.4 °F 83% 29.89 in 6.2 mi WSW 8.1 mph - N/A   Unknown
6:00 AM 71.6 °F - 62.6 °F 73% 29.89 in 6.2 mi West 11.5 mph - N/A   Unknown
7:00 AM 71 °F - 64 °F 71% 29.93 in 6 mi WNW 4.6 mph - -  
7:00 AM 71.6 °F - 64.4 °F 78% 29.92 in - Variable 4.6 mph - N/A   Clear
8:00 AM 71.6 °F - 64.4 °F 78% 29.92 in - WSW 4.6 mph - N/A   Clear
9:00 AM 73.4 °F - 64.4 °F 73% 29.92 in - SW 9.2 mph - N/A   Clear
10:00 AM 78 °F - 63 °F 51% 29.96 in 6 mi West 9.2 mph - -  
10:00 AM 78.8 °F - 62.6 °F 57% 29.95 in - West 9.2 mph - N/A   Clear
11:00 AM 80.6 °F 82.3 °F 64.4 °F 58% 29.95 in - West 10.4 mph - N/A   Clear
12:00 PM 84.2 °F 86.6 °F 66.2 °F 55% 29.92 in 6.2 mi West 8.1 mph - N/A   Partly Cloudy
1:00 PM 85 °F - 65 °F 42% 29.93 in 6 mi NE 5.8 mph - -   Scattered Clouds
1:00 PM 84.2 °F 86.6 °F 66.2 °F 55% 29.92 in 6.2 mi Variable 5.8 mph - N/A   Partly Cloudy
2:00 PM 80.6 °F 82.7 °F 66.2 °F 61% 29.89 in 6.2 mi East 9.2 mph - N/A   Partly Cloudy
3:00 PM 80.6 °F 82.7 °F 66.2 °F 61% 29.89 in 6.2 mi East 10.4 mph - N/A   Partly Cloudy
4:00 PM 78 °F - 67 °F 62% 29.89 in 6 mi East 6.9 mph - -   Mostly Cloudy
4:00 PM 78.8 °F - 66.2 °F 65% 29.89 in 6.2 mi East 6.9 mph - N/A   Partly Cloudy
5:00 PM 78.8 °F - 66.2 °F 65% 29.89 in 6.2 mi NNW 9.2 mph - N/A   Mostly Cloudy
6:00 PM 78.8 °F - 64.4 °F 61% 29.89 in 6.2 mi West 11.5 mph - N/A   Scattered Clouds
7:00 PM 76 °F - 65 °F 61% 29.89 in 6 mi West 6.9 mph - -   Scattered Clouds
7:00 PM 77.0 °F - 64.4 °F 65% 29.89 in 6.2 mi West 6.9 mph - N/A   Partly Cloudy
8:00 PM 75.2 °F - 64.4 °F 69% 29.89 in 6.2 mi West 8.1 mph - N/A   Partly Cloudy
10:00 PM 71 °F - 63 °F 70% 29.91 in 6 mi Calm Calm - -   Scattered Clouds
10:00 PM 71.6 °F - 62.6 °F 73% 29.89 in 6.2 mi Calm Calm - N/A   Partly Cloudy
11:00 PM 73.4 °F - 62.6 °F 69% 29.89 in 2.8 mi SW 10.4 mph - N/A   Unknown